Location: Cointrin
(46.2167°N, 6.1167°E)
Time: 16:53:56
(UTC+00:00)

Meteor 2-2 Rocket - Visible Passes

Search period start: 30 September 2023 00:00
Search period end: 10 October 2023 00:00
Orbit: 852 x 928 km, 81.3° (Epoch: 29 September)

Date Brightness Start Highest point End Pass type
(mag) Time Alt. Az. Time Alt. Az. Time Alt. Az.
30 Sep 6.6 00:53:30 17° ENE 00:53:30 17° ENE 00:55:50 10° NE visible
30 Sep 4.8 02:36:22 51° NNW 02:36:22 51° NNW 02:40:49 10° N visible
30 Sep 6.2 04:19:15 11° WNW 04:19:57 12° WNW 04:21:53 10° NW visible
01 Oct 6.6 00:53:42 18° ENE 00:53:42 18° ENE 00:55:51 10° NE visible
01 Oct 5.1 02:36:34 42° NNW 02:36:34 42° NNW 02:40:33 10° N visible
02 Oct 6.6 00:53:50 18° NE 00:53:50 18° NE 00:55:50 10° NE visible
02 Oct 5.3 02:36:42 35° NNW 02:36:42 35° NNW 02:40:16 10° N visible
03 Oct 6.6 00:53:58 18° NE 00:53:58 18° NE 00:55:46 10° NNE visible
03 Oct 5.5 02:36:49 30° NNW 02:36:49 30° NNW 02:39:59 10° N visible
04 Oct 6.6 00:54:03 18° NE 00:54:03 18° NE 00:55:41 10° NNE visible
04 Oct 5.8 02:36:55 26° NNW 02:36:55 26° NNW 02:39:40 10° N visible
05 Oct 6.7 00:54:08 17° NNE 00:54:08 17° NNE 00:55:34 10° NNE visible
05 Oct 6.0 02:37:00 22° NNW 02:37:00 22° NNW 02:39:21 10° N visible
06 Oct 6.7 00:54:11 17° NNE 00:54:11 17° NNE 00:55:26 10° NNE visible
06 Oct 6.1 02:37:02 19° NNW 02:37:02 19° NNW 02:38:59 10° N visible
07 Oct 6.8 00:54:13 16° NNE 00:54:13 16° NNE 00:55:17 10° NNE visible
07 Oct 6.3 02:37:04 17° NNW 02:37:04 17° NNW 02:38:37 10° N visible
08 Oct 6.8 00:54:13 15° NNE 00:54:13 15° NNE 00:55:06 10° NNE visible
08 Oct 6.4 02:37:05 14° NNW 02:37:05 14° NNW 02:38:14 10° NNW visible
09 Oct 6.9 00:54:13 14° NNE 00:54:13 14° NNE 00:54:55 10° NNE visible
09 Oct 6.5 02:37:05 13° NNW 02:37:05 13° NNW 02:37:48 10° NNW visible
